Regional Weather Roundup
Issued by NWS San Angelo, TX

Home | Current Version | Previous Version | Text Only | Print | Product List | Glossary On
Versions: 1 2 3 4 5 6 7 8 9 10 11 12 13 14 15 16 17 18 19 20 21 22 23 24 25 26 27 28 29 30 31 32 33 34 35 36 37 38 39 40 41 42 43 44 45 46 47 48 49 50
000
ASUS44 KSJT 272002
RWRSJT
WEST CENTRAL TEXAS REGIONAL WEATHER ROUNDUP
NATIONAL WEATHER SERVICE SAN ANGELO TX
300 PM CDT MON MAR 27 2017

NOTE: "FAIR" INDICATES FEW OR NO CLOUDS BELOW 12,000 FEET WITH NO
SIGNIFICANT WEATHER AND/OR OBSTRUCTIONS TO VISIBILITY.

TXZ049-054-064>066-071>073-076>078-098-099-113-114-127-128-139-140-
154-155-168>170-272100
...LOCATIONS ACROSS WEST CENTRAL TEXAS...

CITY           SKY/WX    TMP DP  RH WIND       PRES   REMARKS
SAN ANGELO     SUNNY     78  39  24 CALM      29.89F
ABILENE        SUNNY     72  45  37 N6        29.92F
DYESS AFB      SUNNY     73  46  38 CALM      29.90F
JUNCTION       SUNNY     83  42  23 VRB5      29.87F
SWEETWATER     SUNNY     71  41  33 E3        29.95F
BROWNWOOD      NOT AVBL
COLEMAN        CLEAR     76  45  33 N7        29.89F
SONORA         SUNNY     82  28  14 VRB5      29.91F HAZE
OZONA            N/A     82  30  15 MISG      29.91F
BRADY          NOT AVBL
$$

TEXAS PANHANDLE/OKLAHOMA PANHANDLE

CITY           SKY/WX    TMP DP  RH WIND       PRES   REMARKS
AMARILLO       SUNNY     68  37  32 VRB6      29.94F
BORGER         SUNNY     68  37  32 SE5       29.93F
CANADIAN       SUNNY     68  42  38 CALM      29.91F
DALHART        SUNNY     67  36  31 SE16      29.93F
DUMAS          CLEAR     64  36  35 S6        29.93F
GUYMON         NOT AVBL
HEREFORD       CLEAR     70  37  30 SE13G18   29.93F
PAMPA          CLEAR     68  39  34 SE3       29.94F
PERRYTON       SUNNY     68  35  29 CALM      29.92F
$$

SOUTHERN PANHANDLE/SOUTH PLAINS/ROLLING PLAINS

CITY           SKY/WX    TMP DP  RH WIND       PRES   REMARKS
LUBBOCK        SUNNY     69  37  30 S10G16    29.93F
SNYDER         SUNNY     70  43  38 N6        29.93F
CHILDRESS      SUNNY     68  41  37 VRB3      29.94F
SEMINOLE       CLEAR     69  37  30 S6        29.95F
$$

PERMIAN BASIN

CITY           SKY/WX    TMP DP  RH WIND       PRES   REMARKS
MIDLAND        SUNNY     74  34  23 VRB3      29.92F
ODESSA         MOSUNNY   73  33  23 VRB5      29.93F
WINK           SUNNY     74  32  21 S6        29.90F
$$

FAR WEST/SOUTHWEST MOUNTAINS/TRANS PECOS

CITY           SKY/WX    TMP DP  RH WIND       PRES   REMARKS
ALPINE         CLEAR     77  23  13 CALM      30.02F
DRYDEN           N/A     86  27  11 SW6       29.85F
EL PASO        SUNNY     77  13   9 W13       29.91F
FORT STOCKTON  SUNNY     79  28  15 CALM      29.91F
GUADALUPE PASS NOT AVBL
MARFA          SUNNY     76  24  14 SE10G18   29.99F
PECOS          CLEAR     74  34  23 CALM      29.89F
$$

DALLAS/FORT WORTH METROPLEX

CITY           SKY/WX    TMP DP  RH WIND       PRES   REMARKS
DFW AIRPORT    MOSUNNY   70  55  59 NE8       29.90F
FTW MEACHAM    SUNNY     71  53  52 VRB5      29.89F
DAL-EXECUTIVE  SUNNY     71  55  56 VRB5      29.89F
GRAND PRAIRIE  SUNNY     70  52  52 NW3       29.92F
ADDISON        MOSUNNY   66  54  63 NW7       29.92F
MESQUITE       CLEAR     70  55  60 N6        29.91F
LANCASTER      CLEAR     69  54  57 CALM      29.91F
$$

NORTH CENTRAL TEXAS

CITY           SKY/WX    TMP DP  RH WIND       PRES   REMARKS
SHRMAN/DENISON CLEAR     68  54  60 NW5       29.91F
GAINESVILLE    SUNNY     69  51  53 N7        29.92F
BRIDGEPORT     CLEAR     70  51  51 NW6       29.92F
DENTON         SUNNY     70  56  61 N7        29.89F
WAXAHACHIE     CLEAR     71  56  58 N9        29.91F
GRANBURY       CLEAR     73  50  45 CALM      29.90F
$$

WESTERN NORTH TEXAS

CITY           SKY/WX    TMP DP  RH WIND       PRES   REMARKS
WICHITA FALLS  MOSUNNY   70  49  47 NW8       29.91F
VERNON         CLEAR     70  39  32 N6        29.92F
BRECKENRIDGE   NOT AVBL
COMANCHE       SUNNY     76  49  38 NE6       29.90F
$$

CENTRAL AND SOUTH CENTRAL TEXAS

CITY           SKY/WX    TMP DP  RH WIND       PRES   REMARKS
AUSTIN/BERGSTM PTSUNNY   81  67  62 E5        29.85F
WACO           SUNNY     76  60  57 CALM      29.88F
HILLSBORO      CLEAR     73  58  59 NW3       29.89F
TEMPLE         MOSUNNY   77  67  71 VRB6      29.88F
KILLEEN-GRAY   SUNNY     76  59  55 CALM      29.87F
FORT HOOD      SUNNY     76  61  57 N6        29.85F
GEORGETOWN     MOSUNNY   82  64  54 NE8       29.85F
LAGO VISTA     FAIR      83  61  46 CALM      29.88S
SAN MARCOS     MOSUNNY   81  66  61 SE7       29.87F
NEW BRAUNFELS  PTSUNNY   83  66  56 S12       29.85F
RANDOLPH AFB   PTSUNNY   79  67  67 S6        29.86F
SAN ANTONIO    MOSUNNY   78  66  66 SE9       29.86F
STINSON        CLOUDY    81  66  60 E8        29.84F
PLEASANTON     NOT AVBL
LA GRANGE      PTSUNNY   81  69  67 SW3       29.84F
GIDDINGS       CLOUDY    78  66  66 SW3       29.88F
$$

EAST TEXAS

CITY           SKY/WX    TMP DP  RH WIND       PRES   REMARKS
PARIS          CLOUDY    63  54  72 NW8       29.91F
CLARKSVILLE    NOT AVBL
TYLER          PTSUNNY   80  62  54 W12       29.87F
LONGVIEW       CLOUDY    76  67  73 SW8       29.87S
PALESTINE      MOCLDY    78  69  72 SE5       29.88F
NACOGDOCHES    CLOUDY    77  66  69 SW6       29.87F
$$

TEXAS HILL COUNTRY AND EDWARDS PLATEAU

CITY           SKY/WX    TMP DP  RH WIND       PRES   REMARKS
LLANO          NOT AVBL
HORSESHOE BAY  FAIR      83  60  46 N5        29.86F
KERRVILLE      SUNNY     85  58  39 NE3       29.86F
FREDERICKSBRG  NOT AVBL
ROCKSPRINGS    NOT AVBL
HONDO          SUNNY     83  66  56 SE6       29.85F
UVALDE         CLEAR     83  64  54 SE6       29.85F
DEL RIO        SUNNY     84  59  42 VRB3      29.82F
$$

SOUTHEAST TEXAS

CITY           SKY/WX    TMP DP  RH WIND       PRES   REMARKS
COLLEGE STN    CLOUDY    79  66  64 SE5       29.87F
CALDWELL       NOT AVBL
CROCKETT       NOT AVBL
BRENHAM        CLOUDY    81  68  63 SW3       29.87F
HUNTSVILLE     CLOUDY    80  66  62 VRB6      29.88F
CONROE         CLOUDY    82  66  58 SW5       29.87F
HOUSTON BUSH   PTSUNNY   86  65  49 S7        29.86F
HOUSTON HOBBY  PTSUNNY   83  67  58 S14       29.87F
PERLAND        PTSUNNY   84  66  54 S14G20    29.89F
WHARTON        NOT AVBL
$$

THE UPPER TEXAS COAST

CITY           SKY/WX    TMP DP  RH WIND       PRES   REMARKS
ORANGE         MOCLDY    79  71  76 S15       29.93F
PORT ARTHUR    PTSUNNY   79  68  69 S15G21    29.90F
GALVESTON      PTSUNNY   79  73  82 SE9       29.91F
ANGLETON       MOSUNNY   83  69  62 S13       29.88F
BAY CITY       MOCLDY    82  69  64 S12G17    29.88F
$$

TEXAS COASTAL BEND, RIO GRANDE PLAINS DEEP SOUTH TEXAS

CITY           SKY/WX    TMP DP  RH WIND       PRES   REMARKS
VICTORIA       PTSUNNY   84  68  58 S12       29.85F
BEEVILLE       MOCLDY    87  70  56 S8        29.83F
ROCKPORT       SUNNY     82  69  64 SE15      29.85F
PORT ARANSAS   CLOUDY    77  71  80 E9        29.86F
PORT LAVACA    MOCLDY    82  71  69 S14G20    29.86F
CORPUS CHRISTI PTSUNNY   83  70  64 SE17      29.83F
KINGSVILLE NAS PTSUNNY   83  73  72 SE13      29.82F
COTULLA        CLOUDY    79  66  64 MISG      29.84F
LAREDO         CLOUDY    79  68  69 NE5       29.84F
BROWNSVILLE    CLOUDY    84  69  60 SE20G26   29.81F
PORT ISABEL    CLOUDY    85  71  63 SE17      29.81S
HEBBRONVILLE   NOT AVBL
MCALLEN        PTSUNNY   89  69  51 SE12G20   29.79F
WESLACO        PTSUNNY   88  69  53 SE13      29.79F
FALFURRIAS     MOCLDY    87  67  51 SE5       29.80F
EDINBURG       CLOUDY    89  67  49 SE12      29.79F
$$




USA.gov is the U.S. government's official web portal to all federal, state and local government web resources and services.